When you browse on this site, cookies collect data to enhance your experience and personalize the content and advertising you see.
Visit our Privacy Policy to learn more. By continuing to use the site, you agree to this use of cookies and data.
  • în România
  • Lista ţărilor
  • Pe 7 zile
  • Temperatura apei
  • Meteo pe hartă
  • Widget-uri
  • user-avatar
    Intrare

    Meteo pe oră la Satif

    Astăzi, 27 Mai, Miercuri

    Timp Temperatura Precipitaţii Vânt Presiune Umiditate
    00:00 +18°C° 0 mm 1 m/s 676 mmHg 70%
    01:00 +18°C° 0 mm 1 m/s 676 mmHg 69%
    02:00 +18°C° 0 mm 1 m/s 676 mmHg 69%
    03:00 +18°C° 0 mm 1 m/s 676 mmHg 68%
    04:00 +19°C° 0 mm 1 m/s 676 mmHg 65%
    05:00 +19°C° 0 mm 1 m/s 676 mmHg 62%
    06:00 +20°C° 0 mm 1 m/s 677 mmHg 58%
    07:00 +21°C° 0 mm 1 m/s 677 mmHg 52%
    08:00 +23°C° 0 mm 1 m/s 678 mmHg 45%
    09:00 +24°C° 0 mm 1 m/s 678 mmHg 39%
    10:00 +25°C° 0 mm 2 m/s 678 mmHg 37%
    11:00 +26°C° 0 mm 2 m/s 678 mmHg 34%
    12:00 +27°C° 0 mm 2 m/s 678 mmHg 31%
    13:00 +27°C° 0 mm 3 m/s 678 mmHg 33%
    14:00 +27°C° 0 mm 4 m/s 678 mmHg 36%
    15:00 +27°C° 0 mm 4 m/s 677 mmHg 38%
    16:00 +25°C° 0.2 mm 4 m/s 677 mmHg 43%
    17:00 +23°C° 0.2 mm 4 m/s 677 mmHg 47%
    18:00 +22°C° 0.2 mm 4 m/s 676 mmHg 52%
    19:00 +21°C° 0.1 mm 4 m/s 677 mmHg 55%
    20:00 +19°C° 0.1 mm 4 m/s 677 mmHg 58%
    21:00 +18°C° 0.1 mm 3 m/s 677 mmHg 61%
    22:00 +18°C° 0.1 mm 3 m/s 677 mmHg 63%
    23:00 +17°C° 0.1 mm 3 m/s 677 mmHg 64%

    Mâine, 28 Mai, Joi

    Timp Temperatura Precipitaţii Vânt Presiune Umiditate
    00:00 +15°C° 0.1 mm 4 m/s 676 mmHg 66%
    01:00 +16°C° 0 mm 3 m/s 676 mmHg 65%
    02:00 +14°C° 0 mm 3 m/s 676 mmHg 65%
    03:00 +15°C° 0 mm 2 m/s 676 mmHg 64%
    04:00 +15°C° 0 mm 2 m/s 676 mmHg 61%
    05:00 +16°C° 0 mm 2 m/s 676 mmHg 58%
    06:00 +16°C° 0 mm 2 m/s 676 mmHg 55%
    07:00 +18°C° 0 mm 3 m/s 677 mmHg 51%
    08:00 +19°C° 0 mm 4 m/s 677 mmHg 47%
    09:00 +21°C° 0 mm 4 m/s 678 mmHg 43%
    10:00 +22°C° 0 mm 5 m/s 678 mmHg 41%
    11:00 +23°C° 0 mm 5 m/s 678 mmHg 38%
    12:00 +25°C° 0 mm 5 m/s 677 mmHg 36%
    13:00 +25°C° 0 mm 5 m/s 677 mmHg 37%
    14:00 +25°C° 0 mm 5 m/s 677 mmHg 37%
    15:00 +25°C° 0 mm 5 m/s 676 mmHg 38%
    16:00 +23°C° 0.1 mm 5 m/s 676 mmHg 41%
    17:00 +23°C° 0.1 mm 4 m/s 676 mmHg 43%
    18:00 +22°C° 0.1 mm 4 m/s 675 mmHg 46%
    19:00 +21°C° 0 mm 4 m/s 675 mmHg 49%
    20:00 +20°C° 0 mm 3 m/s 675 mmHg 52%
    21:00 +19°C° 0 mm 2 m/s 675 mmHg 55%
    22:00 +19°C° 0 mm 3 m/s 675 mmHg 57%
    23:00 +18°C° 0 mm 3 m/s 674 mmHg 59%

    Poimâine, 29 Mai, Vineri

    Timp Temperatura Precipitaţii Vânt Presiune Umiditate
    00:00 +18°C° 0 mm 3 m/s 674 mmHg 61%
    01:00 +17°C° 0 mm 3 m/s 673 mmHg 64%
    02:00 +17°C° 0 mm 2 m/s 673 mmHg 66%
    03:00 +17°C° 0 mm 2 m/s 673 mmHg 69%
    04:00 +17°C° 0.2 mm 2 m/s 673 mmHg 67%
    05:00 +17°C° 0.2 mm 3 m/s 673 mmHg 66%
    06:00 +18°C° 0.2 mm 3 m/s 673 mmHg 65%
    07:00 +19°C° 0.2 mm 4 m/s 673 mmHg 60%
    08:00 +20°C° 0.2 mm 5 m/s 674 mmHg 55%
    09:00 +21°C° 0.2 mm 6 m/s 674 mmHg 50%
    10:00 +23°C° 0.1 mm 7 m/s 674 mmHg 46%
    11:00 +24°C° 0.1 mm 7 m/s 674 mmHg 42%
    12:00 +26°C° 0.1 mm 7 m/s 674 mmHg 38%
    13:00 +26°C° 0.1 mm 7 m/s 673 mmHg 38%
    14:00 +26°C° 0.1 mm 6 m/s 673 mmHg 37%
    15:00 +26°C° 0.1 mm 6 m/s 673 mmHg 37%
    16:00 +25°C° 0.2 mm 5 m/s 672 mmHg 42%
    17:00 +23°C° 0.2 mm 5 m/s 672 mmHg 47%
    18:00 +22°C° 0.2 mm 4 m/s 671 mmHg 53%
    19:00 +21°C° 0.3 mm 3 m/s 671 mmHg 57%
    20:00 +20°C° 0.3 mm 2 m/s 671 mmHg 62%
    21:00 +19°C° 0.3 mm 1 m/s 671 mmHg 66%
    22:00 +18°C° 0.1 mm 2 m/s 671 mmHg 66%
    23:00 +18°C° 0.1 mm 2 m/s 670 mmHg 65%

    30 Mai, Sâmbătă

    Timp Temperatura Precipitaţii Vânt Presiune Umiditate
    00:00 +17°C° 0.1 mm 2 m/s 670 mmHg 64%
    01:00 +17°C° 0 mm 2 m/s 670 mmHg 66%
    02:00 +16°C° 0 mm 1 m/s 669 mmHg 69%
    03:00 +16°C° 0 mm 1 m/s 669 mmHg 71%
    04:00 +18°C° 0 mm 1 m/s 669 mmHg 68%
    05:00 +18°C° 0 mm 1 m/s 670 mmHg 65%
    06:00 +19°C° 0 mm 1 m/s 670 mmHg 63%
    07:00 +20°C° 0 mm 1 m/s 671 mmHg 59%
    08:00 +21°C° 0 mm 1 m/s 671 mmHg 56%
    09:00 +21°C° 0 mm 2 m/s 671 mmHg 52%
    10:00 +22°C° 0.2 mm 3 m/s 671 mmHg 51%
    11:00 +24°C° 0.2 mm 3 m/s 672 mmHg 50%
    12:00 +23°C° 0.2 mm 4 m/s 672 mmHg 48%
    13:00 +23°C° 0.1 mm 4 m/s 672 mmHg 45%
    14:00 +23°C° 0.1 mm 5 m/s 672 mmHg 42%
    15:00 +23°C° 0.1 mm 5 m/s 672 mmHg 40%
    16:00 +22°C° 0 mm 5 m/s 671 mmHg 41%
    17:00 +21°C° 0 mm 4 m/s 671 mmHg 42%
    18:00 +20°C° 0 mm 4 m/s 671 mmHg 44%
    19:00 +18°C° 0 mm 4 m/s 671 mmHg 51%
    20:00 +17°C° 0 mm 3 m/s 671 mmHg 59%
    21:00 +15°C° 0 mm 2 m/s 671 mmHg 66%
    22:00 +15°C° 0 mm 2 m/s 671 mmHg 66%
    23:00 +14°C° 0 mm 2 m/s 671 mmHg 67%

    31 Mai, Duminică

    Timp Temperatura Precipitaţii Vânt Presiune Umiditate
    00:00 +14°C° 0 mm 1 m/s 671 mmHg 67%
    01:00 +13°C° 0 mm 1 m/s 670 mmHg 68%
    02:00 +13°C° 0 mm 1 m/s 670 mmHg 68%
    03:00 +13°C° 0 mm 1 m/s 670 mmHg 68%
    04:00 +14°C° 0 mm 1 m/s 670 mmHg 62%
    05:00 +15°C° 0 mm 1 m/s 671 mmHg 55%
    06:00 +16°C° 0 mm 1 m/s 671 mmHg 49%
    07:00 +18°C° 0 mm 1 m/s 672 mmHg 41%
    08:00 +20°C° 0 mm 1 m/s 673 mmHg 34%
    09:00 +22°C° 0 mm 1 m/s 673 mmHg 26%
    10:00 +24°C° 0 mm 1 m/s 673 mmHg 24%
    11:00 +25°C° 0 mm 2 m/s 674 mmHg 23%
    12:00 +26°C° 0 mm 2 m/s 674 mmHg 21%
    13:00 +27°C° 0 mm 3 m/s 674 mmHg 22%
    14:00 +27°C° 0 mm 3 m/s 673 mmHg 23%
    15:00 +28°C° 0 mm 4 m/s 673 mmHg 23%
    16:00 +27°C° 0 mm 4 m/s 673 mmHg 29%
    17:00 +26°C° 0 mm 3 m/s 672 mmHg 35%
    18:00 +25°C° 0 mm 3 m/s 672 mmHg 40%
    19:00 +23°C° 0.1 mm 2 m/s 672 mmHg 45%
    20:00 +21°C° 0.1 mm 2 m/s 672 mmHg 49%
    21:00 +20°C° 0.1 mm 2 m/s 671 mmHg 53%
    22:00 +19°C° 0.1 mm 2 m/s 671 mmHg 55%
    23:00 +20°C° 0.1 mm 1 m/s 671 mmHg 56%

    1 Iunie, Luni

    Timp Temperatura Precipitaţii Vânt Presiune Umiditate
    00:00 +20°C° 0.1 mm 1 m/s 671 mmHg 57%
    01:00 +19°C° 0 mm 1 m/s 671 mmHg 58%
    02:00 +19°C° 0 mm 1 m/s 671 mmHg 60%
    03:00 +19°C° 0 mm 1 m/s 670 mmHg 61%
    04:00 +20°C° 0 mm 1 m/s 670 mmHg 59%
    05:00 +21°C° 0 mm 1 m/s 671 mmHg 57%
    06:00 +22°C° 0 mm 1 m/s 671 mmHg 55%
    07:00 +23°C° 0 mm 2 m/s 671 mmHg 50%
    08:00 +25°C° 0 mm 3 m/s 672 mmHg 45%
    09:00 +26°C° 0 mm 4 m/s 672 mmHg 41%
    10:00 +27°C° 0 mm 5 m/s 673 mmHg 38%
    11:00 +28°C° 0 mm 5 m/s 673 mmHg 34%
    12:00 +30°C° 0 mm 5 m/s 673 mmHg 31%
    13:00 +30°C° 0 mm 5 m/s 673 mmHg 31%
    14:00 +30°C° 0 mm 5 m/s 672 mmHg 31%
    15:00 +30°C° 0 mm 5 m/s 672 mmHg 31%
    16:00 +28°C° 0 mm 5 m/s 672 mmHg 32%
    17:00 +27°C° 0 mm 4 m/s 671 mmHg 33%
    18:00 +26°C° 0 mm 4 m/s 671 mmHg 35%
    19:00 +24°C° 0 mm 3 m/s 671 mmHg 37%
    20:00 +23°C° 0 mm 2 m/s 671 mmHg 39%
    21:00 +21°C° 0 mm 2 m/s 671 mmHg 41%
    22:00 +20°C° 0 mm 2 m/s 670 mmHg 44%
    23:00 +20°C° 0 mm 2 m/s 670 mmHg 47%
    Arată mai mult